{"data":{"norad_id":61718,"intl_designator":"2024-196M","name":"STARLINK-32591","alt_names":[],"object_type":"PAYLOAD","status":"ACTIVE","operator":null,"country":"US","launch_date":"2024-10-30","launch_site_code":"AFETR","launch_vehicle":null,"mission":null,"orbit_class":"UNKNOWN","rcs_meters":null,"size_class":null,"mass_kg":null,"dimensions":null,"purposes":["comms"],"wikipedia_slug":null,"has_3d_model":false,"image_url":null,"decayed_at":null,"tle_current":{"epoch":"2026-05-25T03:42:10.156608Z","epoch_age_seconds":75909,"freshness":"FRESH","line1":"1 61718U 24196M   26145.15428422  .00000031  00000+0  12045-4 0  9990","line2":"2 61718  53.1603  92.6417 0001085  95.0855 265.0272 15.34389188 89054","mean_motion":15.34389188,"eccentricity":0.0001085,"inclination_deg":53.1603,"raan_deg":92.6417,"arg_perigee_deg":95.0855,"mean_anomaly_deg":265.0272,"bstar":1.2045e-5,"rev_number":8905,"period_min":93.848419375072,"perigee_km":461.99314128554,"apogee_km":463.47761059112,"semimajor_km":6840.8723759383,"source":"CELESTRAK","updated_at":"2026-05-25T13:38:19.446134Z"}}}